RH
25 25 25 24 24 24 24 28 29 29 27 28 33 33 36 42 38 35 36 37 33 34 40 45 45 47 48 54 63 74 85 83 83 83 79 83 88 88
29 29 28 29 25 24 25 24 26 28 30 30 32 30 37 34 33 34 34 36 40 37 35 38 44 45 44 47 48 50 58 71 77 81 78 72 73 69
31 34 31 27 25 22 22 21 21 24 31 21 33 35 29 37 39 37 35 36 36 40 40 40 44 45 45 45 45 45 47 47 57 66 75 70 70 68
24 27 26 25 23 21 20 20 20 19 25 24 24 32 34 31 33 40 38 37 37 38 40 43 44 43 45 46 47 46 44 44 43 44 47 52 57 59
16 17 20 25 25 26 25 25 26 25 26 25 17 25 30 30 30 32 36 43 44 44 41 40 41 44 44 46 50 51 48 46 42 43 44 45 49 50
25 27 28 29 31 34 34 34 33 36 35 34 30 24 29 25 30 33 34 40 41 39 43 45 44 45 50 51 50 54 55 51 49 45 41 44 45 45
28 29 38 38 40 41 41 37 44 45 41 42 39 37 32 30 31 32 35 33 27 28 30 32 39 46 50 53 50 50 53 58 54 53 48 42 41 42
43 40 41 46 47 48 46 48 51 59 60 53 49 51 41 42 35 36 35 34 31 29 34 27 28 33 40 50 48 48 48 49 57 54 53 48 42 38
56 54 50 55 59 55 53 48 45 51 61 64 55 50 56 52 49 39 38 35 33 33 34 29 26 26 26 32 40 44 42 43 43 52 52 52 50 43
60 63 66 70 67 65 55 49 43 42 41 59 63 47 52 52 52 48 43 44 40 33 34 26 21 23 27 28 28 33 38 39 39 41 48 52 54 51
70 73 80 80 71 62 62 54 43 35 35 44 67 61 53 54 58 54 45 52 52 43 36 28 22 24 22 22 25 30 31 32 36 35 38 47 56 59
82 84 83 83 73 64 67 62 54 41 39 40 61 77 62 57 60 57 61 58 58 44 40 33 27 25 21 20 29 37 39 38 38 39 41 46 54 63
88 94 92 88 83 74 73 74 70 57 52 56 57 76 80 69 66 60 55 55 55 51 45 39 29 24 25 17 17 37 47 46 47 45 47 46 53 59
87 94 95 98 97 88 78 77 75 68 63 70 74 77 87 85 78 73 67 61 58 57 52 46 35 28 26 24 15 21 45 57 55 48 46 48 52 58
83 89 97 94 95 94 91 85 79 71 68 72 72 74 77 82 91 95 87 82 71 60 52 52 44 37 31 25 22 16 24 48 55 48 48 49 55 56
78 88 96 98 93 94 92 87 81 68 61 60 63 61 68 70 76 82 83 81 78 70 61 56 52 45 38 33 28 22 24 31 53 56 54 50 54 58
80 84 90 96 97 96 95 93 94 87 78 68 64 62 62 66 67 71 74 73 68 63 59 57 53 49 44 40 31 21 23 27 41 59 60 53 50 58
76 81 88 95 98 98 95 90 89 92 88 87 81 75 68 64 66 72 72 68 65 56 51 49 52 53 48 40 31 24 22 30 42 59 64 58 53 55
80 74 84 91 97 96 96 93 89 90 94 92 90 85 79 73 75 74 71 70 63 58 53 48 45 49 49 41 29 27 29 37 50 64 65 61 56 56
83 76 75 85 91 95 97 98 99 98 97 97 97 95 94 92 91 84 76 72 67 61 55 52 49 47 47 40 37 31 31 44 58 62 63 63 59 58
92 85 79 73 78 84 89 94 96 97 97 97 96 96 95 98 97 95 89 82 75 64 56 52 48 50 50 48 42 39 40 48 64 67 68 66 60 57
94 96 94 81 78 73 75 82 86 89 92 91 92 93 93 95 96 96 94 91 87 79 69 63 62 61 58 53 47 51 61 62 73 73 69 68 61 55
97 98 98 99 91 83 74 73 75 80 84 86 88 88 90 92 92 92 92 91 88 84 80 77 72 66 57 51 55 71 75 74 77 76 74 72 63 61